Tracking 18917 objects as of 16-Jan-2018
HD Live streaming from Space Station
objects crossing your sky now

SL-8 DEB

Track SL-8 DEB now!
10-day predictions


NORAD ID: 18545
Int'l Code: 1986-100C
Perigee: 882.2 km
Apogee: 901.4 km
Inclination: 82.9 °
Period: 102.7 minutes
Semi major axis: 7262 km
RCS: 0.0131 m2 (small)
Launch date: December 17, 1986
Source: Commonwealth of Independent States (former USSR) (CIS)
Launch site: PLESETSK MISSILE AND SPACE COMPLEX (PKMTR)

Note: This is SATELLITE DEBRIS
aabbcc
Your satellite tracking list
Your tracking list is empty




NASA's NSSDC Master Catalog

Two Line Element Set (TLE):
1 18545U 86100C   18015.30440139  .00000619  00000-0  39067-3 0  9991
2 18545  82.9267  15.7688 0013263 220.7428 201.5875 14.02640511573696
Source of the keplerian elements: AFSPC